Location: ??????
(38.3184°N, 23.6932°E)
Time: 01:47:29
(UTC+00:00)

CZ-4B R/B - Pass Details

Date: 16 October 2021
Orbit: 808 x 882 km, 99.1° (Epoch: 04 December)

Event Time Altitude Azimuth Distance (km) Brightness Sun altitude
Rises 16:48:36 0° 173° (S) 3,434 6.3 -13.1°
Reaches altitude 10° 16:50:59 10° 177° (S) 2,509 5.6 -13.5°
Maximum altitude 16:56:32 64° 258° (WSW) 969 3.8 -14.6°
Drops below altitude 10° 17:02:10 10° 340° (NNW) 2,547 6.0 -15.7°
Sets 17:04:37 0° 343° (NNW) 3,491 6.6 -16.2°
